Connexion S'enregistrer

Connexion à votre compte

Identifiant
Mot de passe
Maintenir la connexion active sur ce site

Créer un compte

Pour valider ce formulaire, vous devez remplir tous les champs.
Nom
Identifiant
Mot de passe
Répétez le mot de passe
Adresse e-mail
Répétez l'adresse e-mail

METAR/TAF de Chambéry

[source: ADDS]
METAR
LFLB 262230Z AUTO VRB02KT 9999 BKN080 BKN100 15/12 Q1015 =
TAF
TAF LFLB 261100Z 2612/2712 32005KT 9999 SCT040 SCT070 BECMG 2616/2619 VRB03KT CAVOK =
SR / SS: 04:15 / 19:10 UTC (Lever/Coucher du soleil le 2017-07-27)

 

Webcam de l'Aéroclub - Parking Lima et SW (réactualisation : 5min)

Cliquer ici pour une animation sur les 3 dernières heures / Cliquer sur l'image pour l'agrandir dans une nouvelle fenêtre

 

Webcam de l'Aéroclub - Manche à air et WA (réactualisation : 5min)

Cliquer ici pour une animation sur les 3 dernières heures / Cliquer sur l'image pour l'agrandir dans une nouvelle fenêtre

 

Webcam Bourget-du-Lac (en direct)

JSN Boot template designed by JoomlaShine.com